TDRS 11

Last updated on Tue Sep 22 2026 00:03:06 GMT+0000 (Coordinated Universal Time)

1 39070U 13004A 26264.52777023 .00000078 00000+0 00000+0 0 9993 2 39070 3.6682 32.6615 0003197 41.6632 301.6709 1.00270674 47656
UTC large
Height (km)
Speed (km/s)
/
Latitude / Longitude
Inclination (degrees)
Orbital Period (minutes)
Azimuth
Elevation
Range (km)
Doppler Factor

Next 0 passes for location: London (51.5072 / 0.1276)

No passes found over London.
TDRS 11